{"data":{"norad_id":65774,"epoch":"2026-05-24T21:43:53.942016Z","epoch_age_seconds":93474,"freshness":"FRESH","line1":"1 65774U 25217N   26144.90548544 -.00001490  00000+0 -16650-3 0  9998","line2":"2 65774  51.9043  21.1030 0001023 127.6143 232.4912 14.79934854 36792","mean_motion":14.79934854,"eccentricity":0.0001023,"inclination_deg":51.9043,"raan_deg":21.103,"arg_perigee_deg":127.6143,"mean_anomaly_deg":232.4912,"bstar":-0.0001665,"rev_number":3679,"period_min":97.301580276182,"perigee_km":628.81289225128,"apogee_km":630.24666087377,"semimajor_km":7007.6667765625,"source":"CELESTRAK","updated_at":"2026-05-25T13:38:05.662135Z"}}